STARLINK-35741 (66272 NORAD) Tracking and Keplerian Element Data

This shows tracking and keplerian element data for the satellite.

Feedback or suggestion? Click here.




ElementValue
Catalog66272
NameSTARLINK-35741
Epoch Orbit883
Epoch Day353.83961215
Epoch Year2025
RAAN204.0877
Inclination53.1595
Eccentricity0.0001299
Argument of Perigee97.2523
Mean Anonmoly262.8629
Mean Motion15.39638295
Decay Rate0.00026887
L11 66272U 25247H 25353.83961215 .00026887 00000+0 67939-3 0 9993
L22 66272 53.1595 204.0877 0001299 97.2523 262.8629 15.39638295 8835



Live tracking and technical data element details for STARLINK-35741 (NORAD 66272). STARLINK-35741 can be tracked NOW for your location showing map with azimuth and elevation plus other details from your city location.







IsCatalogInMostPopularTable: catalog: 66272, numindb: 3
Update: records affected: 1



GetName: 66272 STARLINK-35741

Hit Count: updated at: Sun, 08 Feb 2026 08:57:52 GMT